Satellite: NOAA-10
Catalog number: 16969
Epoch time:      10034.82911098
Element set:    0943
Inclination:      098.6722 deg
RA of node:       064.9585 deg
Eccentricity:    0.0011540
Arg of perigee:   238.8128 deg
Mean anomaly:     121.1916 deg
Mean motion:   14.27405317 rev/day
Decay rate:       -1.4e-07 rev/day^2
Epoch rev:           21655
Checksum:              299

Satellite: NOAA-11
Catalog number: 19531
Epoch time:      10034.87200359
Element set:    0958
Inclination:      098.7730 deg
RA of node:       126.1593 deg
Eccentricity:    0.0011594
Arg of perigee:   164.7850 deg
Mean anomaly:     195.3690 deg
Mean motion:   14.14914263 rev/day
Decay rate:       2.21e-06 rev/day^2
Epoch rev:           10228
Checksum:              293

Satellite: NOAA-12
Catalog number: 21263
Epoch time:      10035.84317845
Element set:     439
Inclination:      098.7698 deg
RA of node:       048.9927 deg
Eccentricity:    0.0012228
Arg of perigee:   187.2823 deg
Mean anomaly:     172.8658 deg
Mean motion:   14.25614185 rev/day
Decay rate:        5.8e-07 rev/day^2
Epoch rev:           97358
Checksum:              344

Satellite: MET-3/5
Catalog number: 21655
Epoch time:      10034.85476484
Element set:     728
Inclination:      082.5537 deg
RA of node:       042.8348 deg
Eccentricity:    0.0012843
Arg of perigee:   327.4759 deg
Mean anomaly:     032.5555 deg
Mean motion:   13.17019235 rev/day
Decay rate:        5.1e-07 rev/day^2
Epoch rev:           88812
Checksum:              313

Satellite: MET-2/21
Catalog number: 22782
Epoch time:      10034.87292447
Element set:    0687
Inclination:      082.5496 deg
RA of node:       358.2049 deg
Eccentricity:    0.0023853
Arg of perigee:   058.6303 deg
Mean anomaly:     301.7196 deg
Mean motion:   13.83641279 rev/day
Decay rate:        7.6e-07 rev/day^2
Epoch rev:           82964
Checksum:              333

Satellite: OKEAN-4
Catalog number: 23317
Epoch time:      10035.78736857
Element set:     145
Inclination:      082.5417 deg
RA of node:       117.4410 deg
Eccentricity:    0.0021063
Arg of perigee:   322.2117 deg
Mean anomaly:     037.7644 deg
Mean motion:   14.82762280 rev/day
Decay rate:       1.06e-06 rev/day^2
Epoch rev:           82683
Checksum:              280

Satellite: NOAA-14
Catalog number: 23455
Epoch time:      10034.73743778
Element set:    0933
Inclination:      098.8885 deg
RA of node:       116.3671 deg
Eccentricity:    0.0008569
Arg of perigee:   253.8364 deg
Mean anomaly:     106.1864 deg
Mean motion:   14.13778194 rev/day
Decay rate:        2.7e-07 rev/day^2
Epoch rev:           77864
Checksum:              346

Satellite: NOAA-15
Catalog number: 25338
Epoch time:      10034.93855721
Element set:    0255
Inclination:      098.6075 deg
RA of node:       024.3308 deg
Eccentricity:    0.0011540
Arg of perigee:   101.7288 deg
Mean anomaly:     258.5219 deg
Mean motion:   14.24804961 rev/day
Decay rate:        4.5e-07 rev/day^2
Epoch rev:           60977
Checksum:              300

Satellite: RESURS
Catalog number: 25394
Epoch time:      10035.63584759
Element set:     423
Inclination:      098.3160 deg
RA of node:       060.8670 deg
Eccentricity:    0.0000531
Arg of perigee:   238.5215 deg
Mean anomaly:     121.5909 deg
Mean motion:   14.24192371 rev/day
Decay rate:       -3.2e-07 rev/day^2
Epoch rev:           60148
Checksum:              273

Satellite: FENGYUN1
Catalog number: 25730
Epoch time:      10035.65106486
Element set:     965
Inclination:      098.7755 deg
RA of node:       004.1233 deg
Eccentricity:    0.0023631
Arg of perigee:   280.6255 deg
Mean anomaly:     079.2241 deg
Mean motion:   14.08168767 rev/day
Decay rate:       -1.2e-07 rev/day^2
Epoch rev:           55303
Checksum:              283

Satellite: OKEAN-0
Catalog number: 25860
Epoch time:      10034.78724234
Element set:    0906
Inclination:      097.8157 deg
RA of node:       012.1425 deg
Eccentricity:    0.0001514
Arg of perigee:   102.8416 deg
Mean anomaly:     257.2962 deg
Mean motion:   14.73610760 rev/day
Decay rate:        1.9e-07 rev/day^2
Epoch rev:           56725
Checksum:              280

Satellite: NOAA-16
Catalog number: 26536
Epoch time:      10034.91891141
Element set:    0733
Inclination:      099.1773 deg
RA of node:       049.2040 deg
Eccentricity:    0.0010401
Arg of perigee:   355.5608 deg
Mean anomaly:     004.5430 deg
Mean motion:   14.12545042 rev/day
Decay rate:      -1.42e-06 rev/day^2
Epoch rev:           48301
Checksum:              255

Satellite: NOAA-17
Catalog number: 27453
Epoch time:      10034.78795436
Element set:    0740
Inclination:      098.4514 deg
RA of node:       090.4862 deg
Eccentricity:    0.0012073
Arg of perigee:   163.1041 deg
Mean anomaly:     197.0546 deg
Mean motion:   14.24127194 rev/day
Decay rate:       -6.3e-07 rev/day^2
Epoch rev:           39571
Checksum:              299

Satellite: NOAA-18
Catalog number: 28654
Epoch time:      10034.80738103
Element set:    0223
Inclination:      098.9364 deg
RA of node:       341.5582 deg
Eccentricity:    0.0015155
Arg of perigee:   070.4292 deg
Mean anomaly:     289.8500 deg
Mean motion:   14.11324728 rev/day
Decay rate:        4.4e-07 rev/day^2
Epoch rev:           24262
Checksum:              287

Satellite: NOAA-19
Catalog number: 33591
Epoch time:      10034.83727656
Element set:    0428
Inclination:      098.7756 deg
RA of node:       339.8864 deg
Eccentricity:    0.0013558
Arg of perigee:   309.6020 deg
Mean anomaly:     050.3980 deg
Mean motion:   14.11021702 rev/day
Decay rate:       1.32e-06 rev/day^2
Epoch rev:           05110
Checksum:              289

/EX
SB KEPS @ AMSAT  $ORB10035.M
Orbital Elements  10035.MISC

HR AMSAT ORBITAL ELEMENTS FOR MANNED AND MISCELLANEOUS SATELLITES
FROM WA5QGD FORT WORTH,TX February 4, 2010
Send Subscribe/unsubscribe to KEPS at http://www.amsat.org/mailman/listinfo/keps
BID: ORB10035.M
TO ALL RADIO AMATEURS BT

Satellite: HUBBLE
Catalog number: 20580
Epoch time:      10034.26164458
Element set:     512
Inclination:      028.4698 deg
RA of node:       034.1064 deg
Eccentricity:    0.0003637
Arg of perigee:   214.2224 deg
Mean anomaly:     145.8149 deg
Mean motion:   15.00886988 rev/day
Decay rate:       3.71e-06 rev/day^2
Epoch rev:           88460
Checksum:              289

Satellite: ISS
Catalog number: 25544
Epoch time:      10036.02140206
Element set:     517
Inclination:      051.6445 deg
RA of node:       189.3027 deg
Eccentricity:    0.0010719
Arg of perigee:   284.4187 deg
Mean anomaly:     177.1299 deg
Mean motion:   15.75678155 rev/day
Decay rate:     1.6750e-04 rev/day^2
Epoch rev:           64265
Checksum:              300

Satellite: CO-58
Catalog number: 28895
Epoch time:      10034.67119931
Element set:    0505
Inclination:      098.0327 deg
RA of node:       283.4278 deg
Eccentricity:    0.0017957
Arg of perigee:   346.9978 deg
Mean anomaly:     013.0763 deg
Mean motion:   14.59840793 rev/day
Decay rate:        3.0e-07 rev/day^2
Epoch rev:           22750
Checksum:              338

Satellite: FALCON
Catalog number: 30776
Epoch time:      10035.67636338
Element set:     758
Inclination:      035.4325 deg
RA of node:       128.6694 deg
Eccentricity:    0.0000255
Arg of perigee:   052.8860 deg
Mean anomaly:     307.1879 deg
Mean motion:   15.03445489 rev/day
Decay rate:       4.76e-06 rev/day^2
Epoch rev:           16010
Checksum:              305

Satellite: MAST
Catalog number: 31126
Epoch time:      10034.81589486
Element set:    0793
Inclination:      097.9589 deg
RA of node:       083.6040 deg
Eccentricity:    0.0093379
Arg of perigee:   280.8106 deg
Mean anomaly:     078.2527 deg
Mean motion:   14.53549527 rev/day
Decay rate:       -8.8e-07 rev/day^2
Epoch rev:           14868
Checksum:              343

Satellite: CAPE1
Catalog number: 31130
Epoch time:      10035.56470186
Element set:     806
Inclination:      097.9548 deg
RA of node:       081.9921 deg
Eccentricity:    0.0101643
Arg of perigee:   285.5880 deg
Mean anomaly:     073.4136 deg
Mean motion:   14.52130500 rev/day
Decay rate:       1.09e-06 rev/day^2
Epoch rev:           14841
Checksum:              274

Satellite: COMPASS
Catalog number: 32787
Epoch time:      10034.19766702
Element set:    0587
Inclination:      097.9109 deg
RA of node:       100.7052 deg
Eccentricity:    0.0015879
Arg of perigee:   005.5705 deg
Mean anomaly:     354.5727 deg
Mean motion:   14.81746885 rev/day
Decay rate:       1.37e-06 rev/day^2
Epoch rev:           09565
Checksum:              325

Satellite: AAUSAT2
Catalog number: 32788
Epoch time:      10034.68594279
Element set:     580
Inclination:      097.9116 deg
RA of node:       101.2882 deg
Eccentricity:    0.0015807
Arg of perigee:   005.1360 deg
Mean anomaly:     354.9984 deg
Mean motion:   14.81883217 rev/day
Decay rate:       6.67e-06 rev/day^2
Epoch rev:            9573
Checksum:              329

Satellite: DO-64
Catalog number: 32789
Epoch time:      10034.70427279
Element set:    0598
Inclination:      097.9166 deg
RA of node:       101.6425 deg
Eccentricity:    0.0015549
Arg of perigee:   002.9906 deg
Mean anomaly:     357.1365 deg
Mean motion:   14.81945053 rev/day
Decay rate:       5.80e-06 rev/day^2
Epoch rev:           09573
Checksum:              331

Satellite: CO-66
Catalog number: 32791
Epoch time:      10034.20107846
Element set:    0578
Inclination:      097.9120 deg
RA of node:       100.7359 deg
Eccentricity:    0.0016319
Arg of perigee:   003.8058 deg
Mean anomaly:     356.3313 deg
Mean motion:   14.81554326 rev/day
Decay rate:        5.6e-07 rev/day^2
Epoch rev:           09561
Checksum:              293

